Location: Be?chatów
(51.3665°N, 19.3745°E)
Time: 07:57:01
(UTC+00:00)

Cosmos 1680 Rocket - Pass Details

Date: 19 May 2025
Orbit: 757 x 776 km, 74.1° (Epoch: 16 June)

Event Time Altitude Azimuth Distance (km) Brightness Sun altitude
Exits shadow 22:39:26 34° 160° (SSE) 1,256 4.1 -18.7°
Maximum altitude 22:41:20 50° 107° (ESE) 976 3.9 -18.7°
Drops below altitude 10° 22:46:21 10° 33° (NNE) 2,305 6.8 -18.6°
Sets 22:48:47 0° 29° (NNE) 3,232 7.9 -18.6°
